When you browse on this site, cookies collect data to enhance your experience and personalize the content and advertising you see.
Visit our Privacy Policy to learn more. By continuing to use the site, you agree to this use of cookies and data.

Stündliche Wetter Tizayuca

Heute, 6 August, Donnerstag

Zeit Temperatur Niederschläge Wind Luftdruck Luftfeuchtigkeit
00:00 +15°C° 0 mm 1 m/S 581 mmHg 90%
01:00 +14°C° 0 mm 1 m/S 581 mmHg 90%
02:00 +14°C° 0 mm 1 m/S 580 mmHg 90%
03:00 +14°C° 0 mm 1 m/S 580 mmHg 89%
04:00 +14°C° 0 mm 1 m/S 580 mmHg 89%
05:00 +14°C° 0 mm 1 m/S 580 mmHg 89%
06:00 +15°C° 0 mm 1 m/S 581 mmHg 84%
07:00 +16°C° 0 mm 1 m/S 582 mmHg 79%
08:00 +18°C° 0 mm 1 m/S 583 mmHg 74%
09:00 +20°C° 0.1 mm 1 m/S 583 mmHg 69%
10:00 +20°C° 0.1 mm 2 m/S 584 mmHg 63%
11:00 +23°C° 0.1 mm 2 m/S 584 mmHg 58%
12:00 +24°C° 0.2 mm 3 m/S 584 mmHg 54%
13:00 +25°C° 0.2 mm 3 m/S 584 mmHg 51%
14:00 +25°C° 0.2 mm 4 m/S 584 mmHg 48%
15:00 +23°C° 0.6 mm 4 m/S 583 mmHg 53%
16:00 +22°C° 0.6 mm 4 m/S 582 mmHg 59%
17:00 +21°C° 0.6 mm 5 m/S 582 mmHg 65%
18:00 +19°C° 0.4 mm 4 m/S 582 mmHg 72%
19:00 +17°C° 0.4 mm 3 m/S 582 mmHg 78%
20:00 +16°C° 0.4 mm 3 m/S 582 mmHg 85%
21:00 +15°C° 0 mm 2 m/S 581 mmHg 86%
22:00 +15°C° 0 mm 2 m/S 581 mmHg 88%
23:00 +14°C° 0 mm 2 m/S 581 mmHg 89%

Morgen, 7 August, Freitag

Zeit Temperatur Niederschläge Wind Luftdruck Luftfeuchtigkeit
00:00 +14°C° 0 mm 2 m/S 581 mmHg 90%
01:00 +14°C° 0 mm 2 m/S 581 mmHg 90%
02:00 +14°C° 0 mm 2 m/S 581 mmHg 90%
03:00 +15°C° 0 mm 1 m/S 581 mmHg 88%
04:00 +15°C° 0 mm 1 m/S 581 mmHg 86%
05:00 +15°C° 0 mm 1 m/S 581 mmHg 84%
06:00 +16°C° 0 mm 1 m/S 582 mmHg 78%
07:00 +18°C° 0 mm 1 m/S 583 mmHg 73%
08:00 +20°C° 0 mm 1 m/S 584 mmHg 67%
09:00 +20°C° 0.5 mm 2 m/S 584 mmHg 65%
10:00 +21°C° 0.5 mm 3 m/S 584 mmHg 63%
11:00 +22°C° 0.5 mm 3 m/S 584 mmHg 60%
12:00 +22°C° 1.4 mm 4 m/S 584 mmHg 60%
13:00 +22°C° 1.4 mm 5 m/S 583 mmHg 60%
14:00 +23°C° 1.4 mm 6 m/S 583 mmHg 59%
15:00 +22°C° 1.5 mm 5 m/S 583 mmHg 62%
16:00 +21°C° 1.5 mm 5 m/S 582 mmHg 65%
17:00 +20°C° 1.5 mm 5 m/S 582 mmHg 68%
18:00 +18°C° 0.3 mm 4 m/S 582 mmHg 73%
19:00 +17°C° 0.3 mm 4 m/S 582 mmHg 79%
20:00 +16°C° 0.3 mm 3 m/S 582 mmHg 84%
21:00 +15°C° 0 mm 2 m/S 582 mmHg 85%
22:00 +15°C° 0 mm 2 m/S 583 mmHg 86%
23:00 +15°C° 0 mm 2 m/S 583 mmHg 86%

übermorgen, 8 August, Samstag

Zeit Temperatur Niederschläge Wind Luftdruck Luftfeuchtigkeit
00:00 +15°C° 0 mm 2 m/S 582 mmHg 87%
01:00 +14°C° 0 mm 2 m/S 582 mmHg 88%
02:00 +14°C° 0 mm 2 m/S 581 mmHg 88%
03:00 +14°C° 0 mm 2 m/S 581 mmHg 89%
04:00 +14°C° 0 mm 2 m/S 582 mmHg 90%
05:00 +14°C° 0 mm 2 m/S 582 mmHg 90%
06:00 +15°C° 0 mm 2 m/S 582 mmHg 85%
07:00 +16°C° 0 mm 2 m/S 583 mmHg 79%
08:00 +17°C° 0 mm 2 m/S 583 mmHg 73%
09:00 +18°C° 0 mm 3 m/S 584 mmHg 66%
10:00 +20°C° 0 mm 3 m/S 584 mmHg 59%
11:00 +22°C° 0 mm 3 m/S 585 mmHg 53%
12:00 +22°C° 0.4 mm 4 m/S 584 mmHg 56%
13:00 +21°C° 0.4 mm 4 m/S 584 mmHg 59%
14:00 +21°C° 0.4 mm 5 m/S 583 mmHg 63%
15:00 +20°C° 0.7 mm 5 m/S 583 mmHg 65%
16:00 +19°C° 0.7 mm 5 m/S 583 mmHg 68%
17:00 +19°C° 0.7 mm 5 m/S 583 mmHg 70%
18:00 +17°C° 0 mm 4 m/S 583 mmHg 74%
19:00 +15°C° 0 mm 4 m/S 583 mmHg 77%
20:00 +14°C° 0 mm 3 m/S 583 mmHg 80%
21:00 +13°C° 0 mm 3 m/S 583 mmHg 82%
22:00 +14°C° 0 mm 2 m/S 583 mmHg 83%
23:00 +14°C° 0 mm 2 m/S 583 mmHg 84%

9 August, Sonntag

Zeit Temperatur Niederschläge Wind Luftdruck Luftfeuchtigkeit
00:00 +13°C° 0 mm 2 m/S 582 mmHg 85%
01:00 +13°C° 0 mm 1 m/S 582 mmHg 86%
02:00 +12°C° 0 mm 1 m/S 581 mmHg 87%
03:00 +12°C° 0 mm 1 m/S 581 mmHg 87%
04:00 +12°C° 0 mm 1 m/S 581 mmHg 87%
05:00 +11°C° 0 mm 1 m/S 581 mmHg 87%
06:00 +13°C° 0 mm 1 m/S 582 mmHg 78%
07:00 +15°C° 0 mm 1 m/S 583 mmHg 68%
08:00 +16°C° 0 mm 1 m/S 584 mmHg 59%
09:00 +18°C° 0 mm 2 m/S 584 mmHg 53%
10:00 +20°C° 0 mm 2 m/S 585 mmHg 47%
11:00 +23°C° 0 mm 2 m/S 586 mmHg 42%
12:00 +24°C° 0 mm 3 m/S 585 mmHg 43%
13:00 +23°C° 0 mm 4 m/S 585 mmHg 45%
14:00 +25°C° 0 mm 4 m/S 584 mmHg 47%
15:00 +22°C° 1.1 mm 4 m/S 584 mmHg 55%
16:00 +21°C° 1.1 mm 5 m/S 583 mmHg 64%
17:00 +19°C° 1.1 mm 5 m/S 582 mmHg 72%
18:00 +18°C° 0.3 mm 4 m/S 582 mmHg 77%
19:00 +17°C° 0.3 mm 3 m/S 582 mmHg 81%
20:00 +16°C° 0.3 mm 3 m/S 582 mmHg 85%
21:00 +15°C° 0 mm 2 m/S 582 mmHg 86%
22:00 +15°C° 0 mm 2 m/S 582 mmHg 86%
23:00 +15°C° 0 mm 2 m/S 582 mmHg 87%

10 August, Montag

Zeit Temperatur Niederschläge Wind Luftdruck Luftfeuchtigkeit
00:00 +14°C° 0 mm 2 m/S 582 mmHg 87%
01:00 +13°C° 0 mm 2 m/S 581 mmHg 88%
02:00 +13°C° 0 mm 1 m/S 581 mmHg 88%
03:00 +12°C° 0 mm 1 m/S 581 mmHg 89%
04:00 +12°C° 0 mm 1 m/S 581 mmHg 89%
05:00 +12°C° 0 mm 1 m/S 581 mmHg 89%
06:00 +13°C° 0 mm 1 m/S 581 mmHg 82%
07:00 +14°C° 0 mm 1 m/S 582 mmHg 75%
08:00 +16°C° 0 mm 1 m/S 583 mmHg 68%
09:00 +19°C° 0 mm 1 m/S 583 mmHg 58%
10:00 +21°C° 0 mm 1 m/S 584 mmHg 47%
11:00 +23°C° 0 mm 2 m/S 585 mmHg 37%
12:00 +24°C° 0 mm 2 m/S 584 mmHg 37%
13:00 +25°C° 0 mm 3 m/S 584 mmHg 36%
14:00 +26°C° 0 mm 4 m/S 584 mmHg 36%
15:00 +23°C° 0.2 mm 4 m/S 583 mmHg 47%
16:00 +22°C° 0.2 mm 5 m/S 582 mmHg 58%
17:00 +20°C° 0.2 mm 6 m/S 582 mmHg 69%
18:00 +17°C° 0.2 mm 5 m/S 581 mmHg 75%
19:00 +17°C° 0.2 mm 4 m/S 581 mmHg 80%
20:00 +14°C° 0.2 mm 3 m/S 581 mmHg 86%
21:00 +15°C° 0 mm 2 m/S 581 mmHg 87%
22:00 +15°C° 0 mm 2 m/S 581 mmHg 87%
23:00 +15°C° 0 mm 1 m/S 581 mmHg 88%

11 August, Dienstag

Zeit Temperatur Niederschläge Wind Luftdruck Luftfeuchtigkeit
00:00 +15°C° 0 mm 1 m/S 581 mmHg 89%
01:00 +15°C° 0 mm 1 m/S 581 mmHg 89%
02:00 +15°C° 0 mm 1 m/S 580 mmHg 90%
03:00 +15°C° 0 mm 1 m/S 581 mmHg 89%
04:00 +15°C° 0 mm 1 m/S 581 mmHg 88%
05:00 +15°C° 0 mm 1 m/S 581 mmHg 87%
06:00 +16°C° 0 mm 1 m/S 581 mmHg 83%
07:00 +17°C° 0 mm 2 m/S 582 mmHg 79%
08:00 +17°C° 0 mm 2 m/S 582 mmHg 76%
09:00 +18°C° 0.2 mm 3 m/S 583 mmHg 71%
10:00 +19°C° 0.2 mm 3 m/S 583 mmHg 67%
11:00 +21°C° 0.2 mm 4 m/S 583 mmHg 62%
12:00 +21°C° 0.2 mm 4 m/S 583 mmHg 61%
13:00 +22°C° 0.2 mm 4 m/S 582 mmHg 59%
14:00 +22°C° 0.2 mm 4 m/S 582 mmHg 58%
15:00 +21°C° 0.5 mm 4 m/S 582 mmHg 62%
16:00 +20°C° 0.5 mm 5 m/S 581 mmHg 66%
17:00 +19°C° 0.5 mm 5 m/S 581 mmHg 70%
18:00 +18°C° 0.3 mm 4 m/S 581 mmHg 75%
19:00 +17°C° 0.3 mm 3 m/S 581 mmHg 80%
20:00 +16°C° 0.3 mm 2 m/S 581 mmHg 85%
21:00 +16°C° 0.3 mm 2 m/S 581 mmHg 85%
22:00 +16°C° 0.3 mm 2 m/S 581 mmHg 84%
23:00 +16°C° 0.3 mm 2 m/S 582 mmHg 84%
Mehr zeigen